Hourly Data Report for September 05, 2017

All times are specified in Local Standard Time (LST). Add 1 hour to adjust for Daylight Saving Time where and when it is observed.

SUMMERSIDE
PRINCE EDWARD ISLAND

46°26'28.000" N
63°50'17.000" W
12.20 m
8300596
71702
WSD

Download Data

Hourly Data (September 2017)
Hourly Data Report for September 5, 2017
Temp Definition
°C
Dew Point Temp Definition
°C
Rel Hum Definition
%
Wind Dir Definition
10's deg

Wind Spd Definition
km/h
Visibility Definition
km
Stn Press Definition
kPa
Hmdx Definition


Wind Chill Definition


Weather Definition


TIME
00:00 15.4 13.1 86 22 20   100.66     LegendNANA
01:00 15.8 13.3 85 21 20   100.63     LegendNANA
02:00 15.3 13.0 87 21 26   100.65     LegendNANA
03:00 15.4 13.1 86 20 22   100.62     LegendNANA
04:00 15.5 13.7 89 20 24   100.62     LegendNANA
05:00 15.7 14.0 89 20 27   100.62     LegendNANA
06:00 16.3 13.8 85 20 33   100.60     LegendNANA
07:00 17.2 13.8 81 19 33   100.66     LegendNANA
08:00 17.3 13.6 79 19 37   100.60     LegendNANA
09:00 18.7 14.2 75 20 38   100.61     LegendNANA
10:00 20.4 15.1 71 20 33   100.64     LegendNANA
11:00 21.6 15.2 67 21 33   100.65 26   LegendNANA
12:00 21.9 15.6 68 21 41   100.64 26   LegendNANA
13:00 23.3 16.4 65 21 40   100.62 28   LegendNANA
14:00 23.3 15.9 63 20 44   100.63 28   LegendNANA
15:00 22.9 16.3 66 21 42   100.64 28   LegendNANA
16:00 22.3 16.5 70 21 39   100.69 27   LegendNANA
17:00 21.7 16.8 74 22 31   100.78 27   LegendNANA
18:00 20.7 17.2 80 20 27   100.82 26   LegendNANA
19:00 19.7 17.3 86 21 24   100.88     LegendNANA
20:00 19.1 17.2 89 19 26   100.93     LegendNANA
21:00 18.6 17.3 92 19 24   100.96     LegendNANA
22:00 18.9 17.4 91 20 22   101.01     LegendNANA
23:00 19.2 17.4 90 20 22   101.02     LegendNANA

Notes on Data Quality.

Legend

  • E = Estimated
  • M = Missing
  • NA = Not Available
  • ‡ = Partner data that is not subject to review by the National Climate Archives
Date modified: